Regional Weather Roundup
Issued by NWS

Home | Current Version | Previous Version | Graphics & Text | Print | Product List | Glossary On
Versions: 1 2 3 4 5 6 7 8 9 10 11 12 13 14 15 16 17 18 19 20 21 22 23 24 25 26 27 28 29 30 31 32 33 34 35 36 37 38 39 40 41 42 43 44 45 46 47 48
000
ASUS45 KBOU 271107
RWRCO

WEATHER ROUNDUP FOR COLORADO
NATIONAL WEATHER SERVICE DENVER/BOULDER CO
400 AM MST SAT DEC 27 2014

NOTE: "FAIR" INDICATES FEW OR NO CLOUDS BELOW 12000 FEET WITH NO
SIGNIFICANT WEATHER AND/OR OBSTRUCTIONS TO VISIBILITY.

COZ001>005-013-030-031-271200-
...NORTHWEST COLORADO...

CITY           SKY/WX    TMP DP  RH WIND       PRES   REMARKS
CRAIG          FLURRIES   1  -3  83 W3        30.18R
HAYDEN         CLOUDY     9   3  78 CALM      30.13S
MEEKER         CLOUDY    10   6  84 W3        30.16R
MOUNT WERNER   NOT AVBL
STEAMBOAT SPGS CLOUDY     8   6  89 CALM      30.12R
WALDEN         MOCLDY    -9 -15  77 SE5       30.02S WCI -21
$$

COZ006>008-011-271200-
...WEST CENTRAL VALLEYS...

CITY           SKY/WX    TMP DP  RH WIND       PRES   REMARKS
GRAND JUNCTION PTCLDY    11   5  77 CALM      30.21R
MONTROSE       CLOUDY    17  12  80 CALM      30.19R
EAGLE          CLOUDY     9   7  92 SE5       30.15R WCI   0
RIFLE          CLOUDY    13   7  77 S3        30.20R
DELTA          CLOUDY    23  15  73 CALM      30.20R
NUCLA          MOCLDY    12   9  85 E6        30.19R WCI   3
$$

COZ017>023-064>068-271200-
...SOUTHWEST COLORADO...

CITY           SKY/WX    TMP DP  RH WIND       PRES   REMARKS
DURANGO        PTCLDY     7   2  80 N6        30.06R WCI  -3
CORTEZ         CLEAR      5   2  87 NE8       30.13R WCI  -8
PAGOSA SPRINGS LGT SNOW  13  11  93 NE3       30.03S
TELLURIDE      NOT AVBL
WOLF CREEK PAS CLOUDY    -2  -6  84 MISG      29.87R
$$

COZ009-010-012-014-032>034-037-058>063-271200-
...CENTRAL COLORADO...

CITY           SKY/WX    TMP DP  RH WIND       PRES   REMARKS
ASPEN          CLOUDY     6  -2  69 S10       30.06R WCI  -9
BUENA VISTA    PTCLDY    -8 -12  83 W7        30.02S WCI -23
COPPER MTN     CLOUDY     0  -8  71 W14       29.84S WCI -19
BERTHOUD PASS  CLOUDY    -9 -15  77 MISG      29.80S
COTTONWOOD PAS PTCLDY     9   3  78 CALM      29.91S
GUNNISON       CLOUDY     0  -9  65 CALM      30.08R
KREMMLING      LGT SNOW   9   3  78 SE3       30.09R
LEADVILLE      PTCLDY    -8 -13  78 NE8       29.92R WCI -24
MONARCH PASS   CLOUDY    -2  -8  78 MISG      29.93R
SALIDA         CLOUDY     6   2  81 SW7       30.12R WCI  -5
SUNLIGHT       LGT SNOW N/A N/A N/A CALM      29.95R
WILKERSON PASS PTCLDY   N/A N/A N/A NW9       29.86R
$$

COZ069>075-271200-
...SAN LUIS VALLEY/SANGRE DE CRISTO MOUNTAINS...

CITY           SKY/WX    TMP DP  RH WIND       PRES   REMARKS
ALAMOSA        CLOUDY     1  -3  83 NW7       30.02R WCI -12
LA VETA PASS   NOT AVBL
SAGUACHE       NOT AVBL
$$

COZ035-036-038>040-271200-
...NORTHERN COLORADO FRONT RANGE...

CITY           SKY/WX    TMP DP  RH WIND       PRES   REMARKS
DENVER INTL AP PTCLDY     6   3  87 SW10      30.08S WCI  -9
DMNS CITY PARK   N/A      8   4  84 S10       30.11R WCI  -6
AURORA         NOT AVBL
FRONT RANGE AP PTCLDY     9   5  85 SW9       30.08S WCI  -5
ERIE MUNI ARPT   N/A     -2  -5  86 S3        30.11S
BOULDER MUN AP PTCLDY    10   9  92 CALM      30.09S
CENTENNIAL     PTCLDY     6   2  83 SW6       30.07R WCI  -4
BROOMFIELD     PTCLDY    12   5  73 W5        30.08S WCI   4
FORT COLLINS   PTCLDY     9   7  92 CALM      30.11S
LONGMONT       PTCLDY     1  -3  82 SW5       30.13F WCI  -9
$$

COZ041-046-047-076>085-087-088-271200-
...PIKES PEAK/PALMER DIVIDE AND SOUTHERN FOOTHILLS...

CITY           SKY/WX    TMP DP  RH WIND       PRES   REMARKS
COLO. SPRINGS  MOCLDY    11   8  88 W3        30.06S
A. F. ACADEMY  NOT AVBL
ELLICOTT       NOT AVBL
FALCON         PTCLDY     8   3  82 NW10      30.02S WCI  -7
FORT CARSON    NOT AVBL
LIMON          PTCLDY     2  -2  83 W8        30.08R WCI -12
MONUMENT HILL  PTCLDY     1  -4  78 W6        30.01R WCI -10
TRINIDAD       CLOUDY    14  11  87 CALM      30.09R
$$

COZ042>045-048>051-090-091-271200-
...NORTHEAST COLORADO...

CITY           SKY/WX    TMP DP  RH WIND       PRES   REMARKS
GREELEY ARPT   PTCLDY    -4 -11  71 CALM      30.12R
AKRON          CLOUDY     5   4  95 W16       30.10R FOG     WCI -14
BURLINGTON     PTCLDY     2  -2  83 W7        30.13R WCI -11
WRAY           PTCLDY     1  -2  88 SW3       30.14F
STERLING       FLURRIES   5   3  92 S6        30.13S WCI  -6
HOLYOKE        PTCLDY    12   9  85 W12       30.14S WCI  -2
FORT MORGAN    CLEAR      3   0  87 W8        30.12S WCI -10
$$

COZ086-089-092>099-271200-
...SOUTHEAST COLORADO...

CITY           SKY/WX    TMP DP  RH WIND       PRES   REMARKS
PUEBLO         CLEAR      9   7  92 N6        30.13R WCI  -1
LA JUNTA       CLEAR      7   3  84 SW12      30.16R WCI  -8
LAMAR          CLEAR      6   3  87 S9        30.18R WCI  -8
SPRINGFIELD      N/A      7   4  87 NW10      30.15R WCI  -8
$$


USA.gov is the U.S. government's official web portal to all federal, state and local government web resources and services.